| time (UTC) | temp C | wind direction | speed KPH | gust KPH | rain 1hr cm | rain 24hr cm | rain mn cm | humidity % | barometer mb |
| 20260506031314 | 18 | 317 | 3.2 | 8.0 | 0.00 | 0.00 | 0.00 | 79 | 1013.9 |
| 20260506030313 | 17 | 284 | 1.6 | 9.7 | 0.00 | 0.00 | 0.00 | 75 | 1013.8 |
| 20260506024312 | 18 | 9 | 1.6 | 4.8 | 0.00 | 0.00 | 0.00 | 67 | 1013.6 |
| 20260506023312 | 18 | 78 | 3.2 | 9.7 | 0.00 | 0.00 | 0.00 | 57 | 1013.6 |
| 20260506022314 | 18 | 276 | 4.8 | 12.9 | 0.00 | 0.00 | 0.00 | 52 | 1013.5 |
| 20260506021312 | 18 | 184 | 3.2 | 6.4 | 0.00 | 0.00 | 0.00 | 54 | 1013.6 |
| 20260506020312 | 19 | 70 | 3.2 | 8.0 | 0.00 | 0.00 | 0.00 | 62 | 1013.6 |
| 20260506015312 | 20 | 153 | 4.8 | 11.3 | 0.00 | 0.00 | 0.00 | 59 | 1013.5 |
| 20260506014313 | 20 | 242 | 6.4 | 9.7 | 0.00 | 0.00 | 0.00 | 57 | 1013.7 |
| 20260506013310 | 20 | 322 | 9.7 | 17.7 | 0.00 | 0.00 | 0.00 | 49 | 1013.9 |
| 20260506010304 | 20 | 269 | 12.9 | 20.9 | 0.00 | 0.00 | 0.00 | 45 | 1014.2 |
| 20260506002300 | 19 | 197 | 9.7 | 20.9 | 0.00 | 0.00 | 0.00 | 50 | 1014.3 |
| 20260506000255 | 18 | 221 | 4.8 | 11.3 | 0.00 | 0.00 | 0.00 | 65 | 1014.4 |
| 20260505235256 | 18 | 175 | 4.8 | 6.4 | 0.00 | 0.00 | 0.00 | 70 | 1014.4 |
| 20260505234256 | 18 | 290 | 3.2 | 12.9 | 0.00 | 0.00 | 0.00 | 71 | 1014.4 |
| 20260505233254 | 18 | 123 | 3.2 | 6.4 | 0.00 | 0.00 | 0.00 | 70 | 1014.4 |
| 20260505232253 | 18 | 123 | 1.6 | 6.4 | 0.00 | 0.00 | 0.00 | 74 | 1014.5 |
| 20260505231256 | 18 | 113 | 1.6 | 6.4 | 0.00 | 0.00 | 0.00 | 73 | 1014.5 |
| 20260505230255 | 18 | 60 | 0.0 | 4.8 | 0.00 | 0.00 | 0.00 | 73 | 1014.6 |
| 20260505225257 | 18 | 167 | 4.8 | 9.7 | 0.00 | 0.00 | 0.00 | 72 | 1014.6 |
| 20260505224255 | 18 | 169 | 4.8 | 8.0 | 0.00 | 0.00 | 0.00 | 73 | 1014.7 |
| 20260505223253 | 18 | 188 | 1.6 | 4.8 | 0.00 | 0.00 | 0.00 | 74 | 1015.0 |
| 20260505222253 | 18 | 188 | 0.0 | 3.2 | 0.00 | 0.00 | 0.00 | 76 | 1015.2 |
| 20260505221254 | 18 | 188 | 0.0 | 4.8 | 0.00 | 0.00 | 0.00 | 76 | 1015.4 |
| 20260505220254 | 18 | 188 | 3.2 | 6.4 | 0.00 | 0.00 | 0.00 | 77 | 1015.5 |
| 20260505215255 | 18 | 188 | 1.6 | 3.2 | 0.00 | 0.00 | 0.00 | 78 | 1015.6 |
| 20260505214253 | 18 | 188 | 3.2 | 6.4 | 0.00 | 0.00 | 0.00 | 78 | 1015.8 |
| 20260505213254 | 18 | 154 | 1.6 | 4.8 | 0.00 | 0.00 | 0.00 | 80 | 1015.8 |
| 20260505212253 | 18 | 132 | 0.0 | 1.6 | 0.00 | 0.00 | 0.00 | 81 | 1015.8 |
| 20260505211255 | 18 | 132 | 0.0 | 1.6 | 0.00 | 0.00 | 0.00 | 80 | 1015.8 |
| 20260505210253 | 18 | 132 | 1.6 | 6.4 | 0.00 | 0.00 | 0.00 | 80 | 1015.8 |
| 20260505205256 | 18 | 148 | 0.0 | 0.0 | 0.00 | 0.00 | 0.00 | 79 | 1015.9 |
| 20260505204253 | 18 | 248 | 1.6 | 4.8 | 0.00 | 0.00 | 0.00 | 79 | 1016.0 |
| 20260505201251 | 18 | 181 | 0.0 | 3.2 | 0.00 | 0.00 | 0.00 | 81 | 1016.0 |
| 20260505195248 | 18 | 181 | 0.0 | 3.2 | 0.00 | 0.00 | 0.00 | 81 | 1016.4 |
| 20260505193249 | 18 | 148 | 1.6 | 4.8 | 0.00 | 0.00 | 0.00 | 82 | 1016.5 |
| 20260505192248 | 18 | 308 | 0.0 | 0.0 | 0.00 | 0.00 | 0.00 | 83 | 1016.6 |
| 20260505191242 | 18 | 308 | 0.0 | 1.6 | 0.00 | 0.00 | 0.00 | 83 | 1016.7 |
| 20260505190242 | 18 | 308 | 0.0 | 0.0 | 0.00 | 0.00 | 0.00 | 83 | 1016.7 |
| 20260505185242 | 18 | 308 | 0.0 | 0.0 | 0.00 | 0.00 | 0.00 | 83 | 1016.5 |
| 20260505184244 | 18 | 308 | 0.0 | 0.0 | 0.00 | 0.00 | 0.00 | 83 | 1016.4 |
| 20260505183244 | 18 | 308 | 1.6 | 3.2 | 0.00 | 0.00 | 0.00 | 82 | 1016.4 |
| 20260505182246 | 18 | 308 | 3.2 | 4.8 | 0.00 | 0.00 | 0.00 | 82 | 1016.6 |
| 20260505180244 | 18 | 307 | 4.8 | 6.4 | 0.00 | 0.00 | 0.00 | 81 | 1016.8 |
| 20260505175241 | 18 | 284 | 3.2 | 6.4 | 0.00 | 0.00 | 0.00 | 80 | 1016.8 |
| 20260505173240 | 19 | 323 | 1.6 | 8.0 | 0.00 | 0.00 | 0.00 | 78 | 1016.6 |
| 20260505172240 | 19 | 343 | 4.8 | 8.0 | 0.00 | 0.00 | 0.00 | 78 | 1016.7 |
| 20260505171244 | 20 | 331 | 4.8 | 8.0 | 0.00 | 0.00 | 0.00 | 77 | 1016.8 |
| 20260505170240 | 20 | 339 | 6.4 | 12.9 | 0.00 | 0.00 | 0.00 | 75 | 1016.7 |
| 20260505165242 | 20 | 340 | 4.8 | 9.7 | 0.00 | 0.00 | 0.00 | 72 | 1016.8 |
| 20260505164240 | 21 | 281 | 3.2 | 8.0 | 0.00 | 0.00 | 0.00 | 66 | 1016.8 |
| 20260505161239 | 21 | 340 | 1.6 | 4.8 | 0.00 | 0.00 | 0.00 | 68 | 1016.8 |
| 20260505160241 | 20 | 340 | 1.6 | 6.4 | 0.00 | 0.00 | 0.00 | 71 | 1016.7 |
| 20260505153238 | 20 | 355 | 8.0 | 16.1 | 0.00 | 0.00 | 0.00 | 70 | 1016.7 |
| 20260505152236 | 21 | 327 | 6.4 | 12.9 | 0.00 | 0.00 | 0.00 | 69 | 1016.7 |
| 20260505151235 | 21 | 15 | 6.4 | 9.7 | 0.00 | 0.00 | 0.00 | 69 | 1016.6 |
| 20260505150251 | 21 | 5 | 6.4 | 12.9 | 0.00 | 0.00 | 0.00 | 66 | 1016.6 |
| 20260505140236 | 21 | 349 | 8.0 | 14.5 | 0.00 | 0.00 | 0.00 | 63 | 1016.9 |
| 20260505124235 | 22 | 5 | 6.4 | 14.5 | 0.00 | 0.00 | 0.00 | 57 | 1017.1 |
| 20260505123237 | 22 | 345 | 8.0 | 16.1 | 0.00 | 0.00 | 0.00 | 57 | 1017.2 |
| 20260505122233 | 22 | 317 | 9.7 | 16.1 | 0.00 | 0.00 | 0.00 | 60 | 1017.2 |
| 20260505121233 | 22 | 350 | 12.9 | 19.3 | 0.00 | 0.00 | 0.00 | 58 | 1017.2 |
| 20260505115231 | 22 | 339 | 9.7 | 14.5 | 0.00 | 0.00 | 0.00 | 52 | 1017.2 |
| 20260505114231 | 22 | 323 | 9.7 | 16.1 | 0.00 | 0.00 | 0.00 | 56 | 1017.2 |
| 20260505113232 | 22 | 348 | 8.0 | 14.5 | 0.00 | 0.00 | 0.00 | 53 | 1017.2 |
| 20260505112231 | 23 | 328 | 6.4 | 14.5 | 0.00 | 0.00 | 0.00 | 54 | 1017.3 |
| 20260505111233 | 22 | 333 | 8.0 | 16.1 | 0.00 | 0.00 | 0.00 | 54 | 1017.4 |
| 20260505110231 | 22 | 337 | 8.0 | 14.5 | 0.00 | 0.00 | 0.00 | 53 | 1017.5 |
| 20260505100231 | 22 | 340 | 4.8 | 9.7 | 0.00 | 0.00 | 0.00 | 59 | 1017.8 |
| 20260505095231 | 22 | 342 | 4.8 | 12.9 | 0.00 | 0.00 | 0.00 | 61 | 1017.9 |
| 20260505094231 | 21 | 339 | 6.4 | 12.9 | 0.00 | 0.00 | 0.00 | 60 | 1017.9 |
| 20260505093232 | 21 | 355 | 6.4 | 14.5 | 0.00 | 0.00 | 0.00 | 61 | 1018.0 |
| 20260505092235 | 21 | 336 | 6.4 | 9.7 | 0.00 | 0.00 | 0.00 | 62 | 1018.0 |
| 20260505091231 | 21 | 348 | 6.4 | 9.7 | 0.00 | 0.00 | 0.00 | 61 | 1018.0 |
| 20260505090231 | 21 | 315 | 8.0 | 12.9 | 0.00 | 0.00 | 0.00 | 60 | 1018.0 |
| 20260505085231 | 21 | 323 | 8.0 | 14.5 | 0.00 | 0.00 | 0.00 | 62 | 1017.9 |
| 20260505084232 | 21 | 313 | 6.4 | 16.1 | 0.00 | 0.00 | 0.00 | 61 | 1018.0 |
| 20260505082227 | 21 | 319 | 4.8 | 9.7 | 0.00 | 0.00 | 0.00 | 65 | 1018.0 |
| 20260505081227 | 20 | 305 | 4.8 | 8.0 | 0.00 | 0.00 | 0.00 | 65 | 1017.9 |
| 20260505080226 | 20 | 300 | 3.2 | 6.4 | 0.00 | 0.00 | 0.00 | 64 | 1017.8 |
| 20260505074228 | 20 | 323 | 4.8 | 8.0 | 0.00 | 0.00 | 0.00 | 66 | 1017.8 |
| 20260505073241 | 20 | 315 | 1.6 | 6.4 | 0.00 | 0.00 | 0.00 | 66 | 1017.9 |
| 20260505072227 | 20 | 295 | 3.2 | 6.4 | 0.00 | 0.00 | 0.00 | 66 | 1017.9 |
| 20260505071229 | 20 | 355 | 1.6 | 4.8 | 0.00 | 0.00 | 0.00 | 68 | 1018.0 |
| 20260505070229 | 20 | 225 | 1.6 | 4.8 | 0.00 | 0.00 | 0.00 | 69 | 1018.1 |
| 20260505065228 | 19 | 319 | 1.6 | 6.4 | 0.00 | 0.00 | 0.00 | 70 | 1018.0 |
| 20260505064227 | 19 | 295 | 1.6 | 4.8 | 0.00 | 0.00 | 0.00 | 68 | 1018.2 |
| 20260505061222 | 18 | 210 | 1.6 | 3.2 | 0.00 | 0.00 | 0.00 | 74 | 1018.1 |
| 20260505060223 | 17 | 210 | 0.0 | 3.2 | 0.00 | 0.00 | 0.00 | 71 | 1018.2 |
| 20260505055221 | 17 | 210 | 1.6 | 4.8 | 0.00 | 0.00 | 0.00 | 73 | 1018.2 |
| 20260505054222 | 16 | 210 | 3.2 | 6.4 | 0.00 | 0.00 | 0.00 | 74 | 1018.2 |
| 20260505053223 | 16 | 210 | 1.6 | 6.4 | 0.00 | 0.00 | 0.00 | 75 | 1018.2 |
| 20260505052224 | 16 | 210 | 1.6 | 4.8 | 0.00 | 0.00 | 0.00 | 76 | 1018.1 |
| 20260505051222 | 15 | 210 | 1.6 | 4.8 | 0.00 | 0.00 | 0.00 | 77 | 1017.9 |
| 20260505050222 | 15 | 210 | 1.6 | 4.8 | 0.00 | 0.00 | 0.00 | 78 | 1017.8 |
| 20260505041222 | 15 | 210 | 0.0 | 3.2 | 0.00 | 0.00 | 0.00 | 77 | 1017.4 |
| 20260505035219 | 15 | 210 | 3.2 | 6.4 | 0.00 | 0.00 | 0.00 | 78 | 1017.1 |
| 20260505034220 | 15 | 210 | 3.2 | 4.8 | 0.00 | 0.00 | 0.00 | 78 | 1017.3 |
| 20260505033219 | 15 | 210 | 1.6 | 6.4 | 0.00 | 0.00 | 0.00 | 78 | 1017.1 |